Погода в Алтамаше

Россия / Кемеровская область (Кузбасс)     52°32′51″N   87°40′57″E
темп.,
°C
ветер,
м/с
пор.,
м/с
влажн.,
%
обл.,
%
осадки,
мм/ч
давл.,
гПа
погр.,
м
17 апреля, сб
сб1701:000ююз239823 0.0 101738
04:00+3ююз2398100 0.0 101565
07:00+3ююз2496100 0.0 101463
10:00+5з2997100 2.9 1014833
13:00+1сз23100100 7.4 1018223
16:00+3сз247699 0.4 10211070
19:00+2зсз138391 0.6 1022151
22:00−3ю009784 0.1 102411
18 апреля, вс
вс1801:00−1ю1195100 0.1 102348
04:00−1ю1297100 0.0 102190
07:00−2юз129983 0.0 102146
10:00+1юз2579100 0.0 1021708
13:00+5зюз4864100 0.0 10181265
16:00+5з4865100 0.0 10171325
19:00+3ю1189100 0.0 101623
22:00−1юв119657 0.0 101516
19 апреля, пн
пн1901:00−1ю2495100 0.0 101156
04:00+5юз41669100 0.0 1006598
07:00+4з5159096 0.1 10061008
10:00−2з61789100 5.1 10141144
13:00−2з5867100 5.3 10201422
16:00−1з4763100 0.1 10201450
19:00−3сз3573100 0.1 1021955
22:00−4ссз1381100 0.0 1023518
20 апреля, вт
вт2001:00−5ссз138394 0.1 1023364
04:00−7ссз1284100 0.0 1023341
07:00−6сз1276100 0.0 1024615
10:00−4ссз2256100 0.0 10241359
13:00−2ссз3345100 0.1 10231788
16:00−1ссз3341100 0.0 10222093
19:00−2ссз345579 0.0 10231120
22:00−6сз118094 0.0 102518
21 апреля, ср
ср2101:00−6сз117973 0.0 102519
04:00−7ююв00885 0.0 102513
07:00−7ююв12865 0.0 1026139
10:00−2ю1150100 0.0 10251307
13:00+1ю0138100 0.0 10231714
16:00+1зсз1136100 0.0 10221836
19:000сз1246100 0.0 1023416
22:00−3с116889 0.0 102525